Location: Follega
(52.8850°N, 5.7362°E)
Time: 23:48:30
(UTC+00:00)

Cosmos 2297 Rocket - Pass Details

Date: 04 October 2020
Orbit: 838 x 845 km, 71.0° (Epoch: 22 October)

Event Time Altitude Azimuth Distance (km) Brightness Sun altitude
Rises 18:33:39 0° 315° (NW) 3,414 6.4 -14.0°
Reaches altitude 10° 18:37:40 10° 342° (NNW) 2,479 5.0 -14.6°
Maximum altitude 18:40:14 13° 9° (N) 2,267 4.5 -15.0°
Drops below altitude 10° 18:42:48 10° 37° (NE) 2,478 4.4 -15.4°
Enters shadow 18:44:21 - 50° (NE) 2,776 4.5 -15.6°
